Regional Weather Roundup
Issued by NWS

Home | Current Version | Previous Version | Text Only | Print | Product List | Glossary Off
Versions: 1 2 3 4 5 6 7 8 9 10 11 12 13 14 15 16 17 18 19 20 21 22 23 24 25 26 27 28 29 30 31 32 33 34 35 36 37 38 39 40 41 42 43 44 45 46 47 48 49 50

000
ASUS43 KLMK 280802
RWRKY
KENTUCKY REGIONAL WEATHER ROUNDUP
NATIONAL WEATHER SERVICE LOUISVILLE KY
400 AM EDT SUN MAY 28 2017

NOTE "FAIR" INDICATES FEW OR NO CLOUDS BELOW 12,000 FEET
WITH NO SIGNIFICANT WEATHER AND/OR OBSTRUCTIONS TO VISIBILITY.

KYZ001>023-026-027-061>063-070>075-280900-
WESTERN AND SOUTH CENTRAL KENTUCKY

CITY           SKY/WX    TMP DP  RH WIND       PRES   REMARKS
PADUCAH        LGT RAIN  65  61  87 VRB3G20   29.80F
HENDERSON      CLOUDY    64  62  93 S5        29.82S
OWENSBORO      CLOUDY    66  62  87 NW7       29.83R
HOPKINSVILLE   CLOUDY    64  64 100 SW13      29.84R
BOWLING GREEN  LGT RAIN  65  64  97 S14       29.80F
GLASGOW        NOT AVBL
$$

KYZ024-025-028>034-038-045-046-053-280900-
NORTH CENTRAL KENTUCKY

CITY           SKY/WX    TMP DP  RH WIND       PRES   REMARKS
LOUISVILLE/SDF CLOUDY    66  62  87 S8        29.77F
LOUISVILLE/LOU CLOUDY    66  63  90 S8        29.78F
FORT KNOX      MOCLDY    63  62  97 S7        29.77F
$$

KYZ035>037-039>044-047>052-055>060-089>105-280900-
NORTHEAST KENTUCKY

CITY           SKY/WX    TMP DP  RH WIND       PRES   REMARKS
LEXINGTON      MOCLDY    63  59  87 SW10      29.84F
COVINGTON      CLOUDY    62  61  96 S5        29.78F
FRANKFORT      CLOUDY    64  59  83 SW13      29.81F
$$

KYZ054-064>069-076>088-106>120-280900-
SOUTHEAST KENTUCKY

CITY           SKY/WX    TMP DP  RH WIND       PRES   REMARKS
JACKSON        CLOUDY    62  61  96 S5        29.87R
LONDON         PTCLDY    61  59  93 SW5       29.89F
SOMERSET       CLOUDY    61  61 100 CALM      29.90S
MIDDLESBORO    CLOUDY    64  62  91 SW6       29.91S
MONTICELLO     CLOUDY    63  61  93 W15       29.91S
$$





USA.gov is the U.S. government's official web portal to all federal, state and local government web resources and services.